Location: Peach Mountain Observatory
(42.3967°N, 83.9367°W)
Time: 04:59:01
(UTC-05:00)

Explorer 7 - Pass Details

Date: 26 January 2020
Orbit: 485 x 679 km, 50.3° (Epoch: 23 February)

Event Time Altitude Azimuth Distance (km) Brightness Sun altitude
Exits shadow 05:13:10 14° 147° (SSE) 1,552 9.4 -29.9°
Drops below altitude 10° 05:13:49 10° 144° (SE) 1,799 9.8 -29.8°
Sets 05:16:09 0° 138° (SE) 2,724 10.9 -29.4°
